Regional Weather Roundup
Issued by NWS

Home | Current Version | Previous Version | Text Only | Print | Product List | Glossary On
Versions: 1 2 3 4 5 6 7 8 9 10 11 12 13 14 15 16 17 18 19 20 21 22 23 24 25 26 27 28 29 30 31 32 33 34 35 36 37 38 39 40 41 42 43 44 45 46 47 48 49 50
000
ASUS43 KDTX 271301
RWRMI
MICHIGAN HOURLY REGIONAL WEATHER ROUNDUP
NATIONAL WEATHER SERVICE DETROIT/PONTIAC MI
900 AM EDT FRI MAR 27 2015

NOTE: "FAIR" INDICATES FEW OR NO CLOUDS BELOW 12,000 FEET WITH NO
SIGNIFICANT WEATHER AND/OR OBSTRUCTION TO VISIBILITY.

MIZ047>049-052>055-059>063-066>070-074>076-081>083-271400-
SOUTHEAST LOWER MICHIGAN

CITY           SKY/WX    TMP DP  RH WIND       PRES   REMARKS
ADRIAN         MOSUNNY   22  11  62 N10G22    30.02R WCI  11
ALMA           CLOUDY    20   7  56 NW12G21   30.07R WCI   8
ANN ARBOR      CLOUDY    22  12  65 NW14      30.00S WCI   9
BAD AXE        LGT SNOW  19  14  78 N14       30.00R WCI   6
CARO           LGT SNOW  21  16  81 NW13G18   30.02R WCI   9
DETROIT CITY   CLOUDY    25  11  55 NW15G21   29.99S WCI  13
DETROIT        FLURRIES  24  13  62 NW14      30.00S WCI  12
FLINT          LGT SNOW  22  13  68 NW12      30.02R WCI  10
GROSSE ILE     PTSUNNY   25  14  63 NW15      29.99R WCI  12
HILLSDALE      CLOUDY    22  11  65 N16G22    29.99S WCI   8
HOWELL         FLURRIES  21  13  72 N9        30.00S WCI  11

CITY           SKY/WX    TMP DP  RH WIND       PRES   REMARKS
JACKSON        FLURRIES  20  10  65 N16       30.02R WCI   6
LAMBERTVILLE   FLURRIES  27  14  59 N10G17    30.01S WCI  17
LANSING        CLOUDY    21  10  62 N12G20    30.04R WCI   9
LAPEER         LGT SNOW  19  16  86 NW10G20   29.99S WCI   8
MASON          CLOUDY    20  10  64 N13       30.02S WCI   8
MONROE         FLURRIES  23  16  74 NW12      29.99S WCI  12
MT. CLEMENS    LGT SNOW  23  15  73 NW13      29.95R WCI  11
PONTIAC        FLURRIES  20  12  71 NW12      29.97S WCI   8
PORT HOPE        N/A     21  14  74 N13G25    30.00R WCI   9
PORT HURON     LGT SNOW  21  18  86 NW14G21   29.97R WCI   8
TRI CITIES     CLOUDY    21  10  62 NW17      30.05R WCI   7
TROY           FLURRIES  23  14  67 NW12G17   30.01R WCI  12
SAGINAW HB     LGT SNOW  21  14  73 NW15G21   30.04R WCI   8
$$
MIZ043>046-050>051-056>058-064>065-071>073-077>080-271400-
SOUTHWEST LOWER MICHIGAN

CITY           SKY/WX    TMP DP  RH WIND       PRES   REMARKS
BATTLE CREEK   SUNNY     22   9  57 N12       30.05R WCI  10
BENTON HARBOR  LGT SNOW  22  16  78 VRB7      30.10R WCI  13
BIG RAPIDS     SUNNY     17   3  53 N14G21    30.08S WCI   3
COLDWATER      MOSUNNY   21  12  67 N14       30.03S WCI   8
FREMONT        FAIR      19  -4  36 N16G22    30.12R WCI   5
HOLLAND        CLOUDY    23  10  57 N9G20     30.11R WCI  13
GRAND RAPIDS   PTSUNNY   21   5  50 N21       30.08R WCI   5
IONIA          CLOUDY    22   8  55 NW12G18   30.05S WCI  10
KALAMAZOO      PTSUNNY   23  10  57 NW14      30.06S WCI  11
LUDINGTON      MOSUNNY   19  -2  40 NE8G16    30.15S WCI   9
MARSHALL       FLURRIES  20  11  69 NW6       30.03S WCI  12
MOUNT PLEASANT CLOUDY    19   7  60 NW8G17    30.06S WCI   8
MUSKEGON       PTSUNNY   22   1  40 N13G25    30.14R WCI  10
SOUTH HAVEN    CLOUDY    24  11  58 N8G17     30.09S WCI  15
$$
MIZ016>042-271400-
NORTHERN LOWER MICHIGAN

CITY           SKY/WX    TMP DP  RH WIND       PRES   REMARKS
ALPENA         MOSUNNY   15   5  64 N15       30.08S WCI   0
BEAVER ISLAND  SUNNY      8   2  76 N10G18    30.18S WCI  -7
BELLAIRE       MOSUNNY   13   4  66 N6        30.16R WCI   4
CADILLAC       SUNNY     13   4  66 N9G16     30.06S WCI   1
CHARLEVOIX     MOSUNNY   11   5  76 N10G16    30.19R WCI  -2
FRANKFORT      CLOUDY    19   2  48 E6        30.16R WCI  11
GAYLORD        SUNNY      9  -1  64 VRB7      30.06R WCI  -2
GRAYLING       SUNNY     13   1  59 N12       30.08R WCI  -1
HARBOR SPRINGS SUNNY     10   1  68 N7        30.14S WCI  -2
HOUGHTON LAKE  SUNNY     14   2  58 N13G18    30.06R WCI   0
MANISTEE       SUNNY     18   0  45 NE13      30.15R WCI   4
OSCODA         CLOUDY    17   8  65 N14G23    30.04S WCI   3
PELLSTON       SUNNY      8  -1  66 N12       30.15R WCI  -7
ROGERS CITY    CLOUDY    13   8  78 N10G18    30.12R WCI   0
TRAVERSE CITY  PTSUNNY   15   6  67 N10       30.15R WCI   2
$$
MIZ007>008-015-271400-
EASTERN UPPER MICHIGAN

CITY           SKY/WX    TMP DP  RH WIND       PRES   REMARKS
KINROSS        SUNNY      3   0  85 N14G20    30.15R WCI -15
MACKINAC ISLAN SUNNY      8   0  71 N10G17    30.14R WCI  -7
NEWBERRY       SUNNY      2  -3  79 N15       30.17R WCI -16
S. S. MARIE    SUNNY      4  -6  63 NE13      30.17R WCI -13
$$
MIZ004>006-011>014-085-271400-
CENTRAL UPPER MICHIGAN

CITY           SKY/WX    TMP DP  RH WIND       PRES   REMARKS
MANISTIQUE     SUNNY      6  -1  74 MISG      30.20S
ESCANABA       PTSUNNY   12   7  79 N9        30.21S WCI   0
MENOMINEE      MOSUNNY   14   7  73 N12       30.20R WCI   0
SAWYER-GWINN   LGT SNOW  10   5  79 N16       30.17  WCI  -7
$$
MIZ001>003-009>011-084-271400-
WESTERN UPPER MICHIGAN

CITY           SKY/WX    TMP DP  RH WIND       PRES   REMARKS
IRON MOUNTAIN  MOSUNNY   10   3  73 N6        30.18R WCI   0
HOUGHTON       SUNNY      6  -2  69 E6        30.24R WCI  -4
COPPER HARBOR    N/A      6  -1  73 E6        30.28R WCI  -4
IRONWOOD       CLOUDY    18   7  62 N7        30.21R WCI   8
$$

ABBREVIATIONS USED IN REMARKS
   TC - TEMPERATURE IN CELSIUS
  WCI - WIND CHILL INDEX
   HX - HEAT INDEX
  VSB - VISIBILITY



USA.gov is the U.S. government's official web portal to all federal, state and local government web resources and services.